Location: Chillicothe
(39.7950°N, 93.5520°W)
Time: 23:46:03
(UTC-05:00)

Vanguard 3 - Visible Passes

Search period start: 22 October 2019 00:00
Search period end: 01 November 2019 00:00
Orbit: 508 x 3262 km, 33.3° (Epoch: 21 October)

Date Brightness Start Highest point End Pass type
(mag) Time Alt. Az. Time Alt. Az. Time Alt. Az.
22 Oct 9.1 05:56:07 14° SW 05:57:37 15° SSW 06:01:40 10° SSE visible
23 Oct 9.5 04:46:36 14° SSE 04:46:36 14° SSE 04:47:57 10° SSE visible
25 Oct 9.8 20:38:17 10° S 20:39:28 11° S 20:39:28 11° S visible
26 Oct 9.9 21:33:28 10° SSW 21:34:30 13° SSW 21:34:30 13° SSW visible
27 Oct 9.4 20:19:22 10° SSW 20:24:36 17° SSE 20:24:56 17° SSE visible
28 Oct 9.8 19:06:16 10° S 19:10:14 13° SSE 19:13:30 10° SE visible
28 Oct 9.4 21:16:00 10° SW 21:19:56 22° SSW 21:19:56 22° SSW visible
29 Oct 9.1 20:01:09 10° SSW 20:08:32 23° SSE 20:10:19 21° SE visible
29 Oct 10.1 22:13:58 10° WSW 22:14:54 13° SW 22:14:54 13° SW visible
30 Oct 9.8 18:46:50 10° SSW 18:54:02 18° SSE 18:59:20 10° ESE visible
30 Oct 8.9 20:58:33 10° SW 21:05:16 32° S 21:05:16 32° S visible
31 Oct 9.0 19:43:06 10° SW 19:52:24 29° SSE 19:55:36 22° SE visible
31 Oct 9.7 21:56:57 10° WSW 22:00:11 21° SW 22:00:11 21° SW visible
